Wind_Speed
8 8 8 9 9 9 9 9 9 9 8 8 9 9 9 9 11 13 11 5 5 5 4 3 2 2 1 3 4 2 4 1 1 1 5 7 2 10 4 15 7 8 6 13 25
9 9 9 9 9 9 9 9 9 9 9 9 9 10 10 12 14 12 5 6 7 5 5 1 2 2 1 2 2 4 3 3 3 2 2 1 3 10 5 10 2 10 5 26 29
9 9 9 10 10 10 10 10 9 9 9 9 10 10 12 14 9 2 6 8 7 8 5 2 3 1 1 0 0 2 3 3 3 8 8 4 6 9 8 5 11 19 21 32 31
10 10 10 10 10 10 10 10 10 9 9 10 10 10 12 9 3 3 6 8 12 9 2 1 1 1 2 1 0 2 5 5 4 2 5 0 8 3 15 4 4 17 22 36 34
10 11 11 11 11 11 10 10 10 10 10 10 9 10 11 7 5 3 9 11 14 9 5 6 7 2 1 1 3 2 3 6 14 17 11 5 10 7 18 5 4 17 26 36 35
12 12 12 12 12 11 11 11 11 11 10 10 9 9 9 4 5 3 8 13 11 7 4 3 4 6 1 2 2 4 9 12 14 15 6 2 3 10 9 9 14 20 31 36 34
13 13 13 13 12 11 11 11 11 11 10 10 9 9 11 10 2 4 9 12 9 4 4 5 7 5 7 4 5 7 6 5 6 6 6 8 2 10 11 17 20 25 28 35 34
14 14 14 13 12 12 11 12 11 11 10 9 9 9 8 5 8 9 9 11 7 9 8 8 5 6 3 8 5 3 2 6 4 8 5 10 10 5 15 25 25 26 26 31 35
15 15 15 14 13 12 11 12 11 10 9 8 8 6 8 6 10 12 12 10 9 9 8 9 9 1 2 3 4 6 2 5 9 5 6 3 8 4 23 29 25 30 29 29 31
16 15 15 15 14 11 10 10 8 8 8 7 10 5 8 2 2 6 14 13 5 4 5 5 4 2 3 5 2 7 5 5 6 3 1 5 13 3 19 25 26 29 29 33 33
16 16 15 15 13 10 7 6 4 3 8 8 2 4 2 2 4 3 9 15 12 6 1 2 4 3 7 5 7 5 4 7 12 8 6 7 5 7 16 20 20 25 28 34 39
17 16 15 15 13 8 3 3 4 4 9 13 19 22 21 16 6 3 9 10 7 5 3 5 4 5 4 7 6 4 4 7 10 5 4 4 6 7 9 14 27 26 30 38 36
18 17 15 15 11 4 2 3 6 5 3 9 14 16 18 12 10 11 13 12 4 5 5 5 5 2 3 4 4 4 4 5 6 4 4 2 8 5 5 18 14 23 30 33 37
19 18 15 12 6 3 5 4 6 1 4 7 5 7 13 11 5 14 15 9 3 6 8 5 4 4 3 3 3 4 4 4 6 3 1 3 4 5 4 7 7 20 26 37 39
19 18 15 11 10 5 4 4 2 1 2 2 4 3 15 12 4 9 16 14 8 6 5 6 5 3 4 3 2 7 4 4 3 2 3 5 3 7 3 5 4 13 29 37 42
18 18 14 12 8 6 6 2 2 5 5 2 4 4 5 2 3 3 7 8 5 5 1 6 1 3 6 2 5 3 1 7 5 3 4 3 4 6 2 2 10 9 15 23 30
18 16 15 11 4 3 5 2 5 3 5 2 1 3 1 4 3 3 5 5 6 3 2 5 4 3 5 2 2 6 5 4 5 5 5 1 2 9 3 5 6 14 29 17 13
18 15 14 10 8 7 5 5 2 4 6 4 3 2 7 4 2 2 3 4 1 5 3 3 7 3 3 7 7 3 6 5 4 3 7 4 5 6 4 12 15 17 16 13 11
17 12 9 5 11 12 8 3 7 6 3 6 4 3 1 3 3 3 5 5 7 8 7 4 6 4 4 2 5 2 2 5 6 3 2 4 7 9 5 8 21 24 20 17 12
17 9 2 7 11 16 4 5 4 3 5 4 3 1 6 3 5 5 5 4 7 12 7 7 4 4 5 2 2 3 6 2 4 2 4 5 5 5 10 13 13 15 22 23 18
11 2 3 10 17 10 4 7 5 7 4 4 1 3 2 3 7 4 4 3 3 2 6 6 5 8 3 3 6 3 1 6 5 4 4 1 5 5 6 6 9 14 13 20 27
4 2 9 21 4 1 4 6 2 3 5 5 1 5 4 1 5 5 7 5 3 8 8 3 5 7 12 3 1 5 6 6 5 4 1 3 6 2 3 5 9 13 15 20 26
8 1 11 3 3 2 3 2 3 3 4 2 3 7 4 3 2 4 4 2 3 5 7 7 0 2 8 6 1 3 4 5 5 3 5 5 5 0 4 6 7 10 16 16 15
4 2 2 7 1 4 2 3 4 3 6 7 5 1 1 3 2 5 4 2 5 4 6 9 4 6 7 6 3 3 4 5 5 4 5 6 5 4 3 1 6 11 14 13 12
5 1 1 1 1 1 1 1 3 3 3 5 1 5 7 6 2 4 1 2 3 5 3 4 4 4 5 5 2 3 6 7 7 6 6 4 7 5 2 2 5 9 12 11 11
5 4 4 2 4 2 2 5 2 4 4 6 6 7 7 8 9 10 7 3 4 3 3 3 2 1 3 2 3 4 5 5 3 3 4 8 3 2 3 4 8 12 15 17 15
4 3 3 2 3 2 3 2 3 4 8 16 8 3 3 8 14 13 12 10 7 7 3 3 6 3 5 3 6 3 5 4 3 1 2 6 6 7 3 5 10 13 15 17 20
Wind_Direction
322 323 329 327 325 326 327 329 332 331 331 327 323 323 321 311 295 283 272 239 201 214 175 146 360 254 305 38 32 50 63 19 119 27 306 156 174 155 158 150 157 176 174 164 162
322 324 323 321 321 321 321 325 325 324 325 324 324 326 324 317 306 280 258 217 210 206 168 114 79 103 49 42 14 65 84 237 232 214 231 198 217 174 135 166 158 162 164 163 165
320 318 317 318 317 317 318 319 318 317 319 320 324 325 325 326 320 279 209 204 207 186 191 288 277 187 110 171 84 161 173 179 283 264 312 200 187 178 149 204 205 172 161 167 169
323 320 319 316 314 313 313 312 309 308 312 315 321 324 327 328 250 287 192 202 189 182 204 178 150 222 153 243 119 299 247 212 263 185 312 95 183 198 203 261 274 198 181 173 177
323 320 318 315 313 311 309 305 301 302 306 310 315 321 331 313 281 269 187 190 180 172 139 55 41 22 349 356 321 235 292 304 300 298 304 272 205 191 221 274 183 178 184 182 185
325 322 319 316 313 309 305 299 297 297 300 302 307 315 320 292 324 197 191 179 175 171 215 302 346 348 10 280 200 267 259 271 287 273 249 71 171 177 232 209 172 181 184 188 193
325 322 318 315 310 306 302 297 294 291 293 294 299 306 299 272 233 169 162 177 172 186 281 317 318 333 325 307 331 282 309 294 233 242 211 159 300 222 206 185 182 187 189 195 199
327 323 319 314 308 304 301 293 290 287 286 285 288 297 271 250 211 192 176 183 213 239 258 296 337 320 313 313 319 302 54 359 287 136 177 137 270 220 188 186 191 193 199 202 206
329 326 321 315 309 306 302 293 290 282 275 274 277 275 268 244 226 214 217 223 254 249 260 271 314 317 347 353 9 11 344 332 320 197 132 160 263 234 192 192 188 196 201 207 214
328 326 322 317 312 307 302 301 288 267 257 259 255 289 243 242 253 248 224 220 248 355 242 214 205 69 31 57 319 298 326 296 259 281 124 204 258 108 192 194 202 200 200 208 217
326 325 323 319 316 311 306 302 293 284 237 224 188 232 219 238 301 242 218 217 235 282 241 51 64 259 253 205 226 247 254 272 286 267 181 213 262 239 198 212 220 211 208 214 223
323 322 323 321 317 310 332 117 49 307 298 257 254 252 251 260 297 231 196 177 170 197 130 20 272 232 250 262 241 225 238 272 291 308 129 139 256 267 188 226 220 210 216 224 228
322 320 320 321 319 298 137 111 345 319 244 281 241 245 245 237 229 248 191 188 174 179 161 167 253 258 266 307 357 162 180 271 238 326 43 35 336 331 277 241 248 232 233 236 233
321 319 318 323 314 295 170 0 343 144 40 275 234 236 190 176 252 216 198 176 221 209 162 212 258 198 234 317 91 331 211 254 290 29 226 40 281 300 308 289 248 255 239 242 241
320 315 316 312 302 279 201 352 352 131 344 205 200 168 167 169 152 192 193 187 179 190 116 242 179 280 306 231 96 249 356 343 10 34 41 334 71 271 329 337 272 258 257 255 245
320 312 307 302 288 254 232 316 171 45 254 358 139 149 139 200 154 117 163 185 208 158 343 229 233 221 218 220 184 303 5 35 54 72 17 287 109 290 296 346 307 301 301 292 260
317 307 296 285 257 195 205 189 45 154 319 349 216 156 147 160 183 135 167 148 165 122 281 319 244 245 202 289 41 72 51 356 0 11 226 225 39 237 289 282 257 298 312 312 284
318 305 285 272 234 206 174 60 183 250 260 308 37 78 178 150 210 137 139 194 96 90 114 148 316 202 152 192 178 154 147 152 219 228 261 180 238 253 198 317 340 341 334 327 311
323 311 291 241 209 187 171 104 211 211 298 344 327 107 228 194 142 163 184 201 203 167 170 151 275 300 219 180 125 145 185 176 109 27 57 261 297 304 329 347 355 348 5 13 17
329 324 247 196 182 175 91 229 241 232 319 24 45 174 193 196 150 166 196 203 215 184 160 211 307 239 294 131 52 144 157 64 28 214 251 285 294 244 331 329 335 342 357 13 26
331 338 333 158 157 170 167 226 263 269 268 17 285 309 265 194 177 183 217 284 192 86 155 136 133 257 66 192 190 39 328 49 114 137 171 250 270 220 289 314 317 318 15 43 49
355 60 143 143 93 66 169 199 233 283 306 283 212 227 234 195 196 207 207 224 20 159 144 195 148 239 232 254 160 153 199 136 126 225 166 150 271 7 15 334 337 336 9 54 77
346 37 173 181 142 261 276 271 249 254 237 238 260 208 185 210 220 202 219 269 7 148 163 176 353 6 340 356 16 156 165 111 112 81 194 146 255 178 44 30 11 8 10 28 66
351 38 134 213 123 126 63 311 309 280 251 226 254 150 337 279 217 209 190 234 352 75 122 128 126 160 195 214 162 158 183 162 132 128 181 220 181 240 108 43 357 11 20 20 21
4 14 61 242 305 54 201 26 275 300 255 233 213 228 183 216 165 236 244 313 5 6 89 109 179 186 250 239 254 225 225 184 189 190 170 223 171 213 174 26 360 2 7 8 17
9 10 355 297 294 205 180 203 238 279 216 254 213 251 190 203 189 202 172 207 197 4 69 14 190 111 278 319 168 255 255 170 150 163 105 133 120 173 125 106 36 20 12 7 1
8 358 334 319 326 128 216 197 253 360 265 244 245 315 213 233 217 222 191 166 182 150 134 115 133 107 259 339 339 305 213 188 129 15 167 166 191 151 166 96 41 18 10 0 358
Height
1524 1522 1521 1520 1519 1517 1516 1514 1513 1511 1510 1509 1507 1505 1504 1502 1501 1500 1500 1501 1501 1502 1503 1503 1503 1503 1503 1503 1502 1502 1512 1518 1510 1508 1506 1502 1502 1505 1505 1505 1507 1510 1510 1512 1515
1523 1522 1520 1519 1517 1516 1515 1513 1512 1510 1509 1508 1506 1504 1502 1500 1499 1497 1499 1499 1500 1501 1503 1503 1503 1503 1503 1504 1503 1503 1515 1509 1501 1500 1501 1502 1502 1504 1506 1506 1508 1509 1510 1512 1515
1522 1521 1519 1518 1516 1515 1513 1512 1511 1509 1508 1507 1505 1503 1501 1499 1497 1496 1496 1498 1500 1501 1502 1503 1503 1504 1504 1504 1504 1503 1508 1503 1499 1498 1498 1499 1500 1503 1504 1508 1502 1504 1509 1513 1516
1522 1520 1518 1516 1515 1513 1512 1511 1509 1508 1507 1506 1504 1502 1501 1500 1503 1495 1496 1498 1499 1501 1503 1503 1503 1503 1503 1503 1503 1504 1499 1499 1498 1498 1498 1498 1498 1500 1501 1498 1499 1502 1505 1509 1514
1520 1518 1517 1515 1513 1512 1510 1509 1508 1506 1505 1504 1503 1502 1500 1499 1496 1495 1496 1497 1500 1502 1503 1504 1504 1504 1504 1503 1503 1502 1498 1494 1492 1492 1495 1495 1496 1500 1498 1500 1499 1502 1506 1509 1513
1519 1517 1515 1513 1512 1510 1508 1507 1506 1504 1504 1503 1502 1501 1500 1500 1496 1496 1497 1498 1500 1503 1503 1505 1505 1505 1504 1503 1503 1500 1497 1495 1490 1489 1492 1493 1495 1499 1497 1500 1500 1501 1505 1510 1514
1517 1515 1513 1511 1510 1508 1506 1505 1503 1502 1502 1501 1500 1499 1498 1496 1496 1496 1498 1499 1501 1503 1503 1504 1505 1505 1503 1501 1500 1499 1499 1491 1488 1488 1489 1490 1497 1495 1495 1499 1499 1501 1504 1508 1512
1516 1513 1511 1509 1508 1506 1504 1502 1501 1500 1500 1499 1499 1499 1495 1494 1495 1497 1498 1500 1501 1502 1504 1504 1503 1504 1503 1502 1500 1501 1501 1510 1487 1487 1490 1492 1506 1488 1493 1495 1498 1501 1504 1506 1509
1514 1511 1509 1507 1505 1504 1502 1500 1499 1498 1498 1498 1499 1498 1494 1493 1494 1495 1497 1499 1500 1502 1504 1503 1504 1505 1505 1507 1512 1509 1518 1510 1499 1486 1488 1492 1497 1485 1488 1492 1496 1497 1501 1505 1507
1513 1510 1507 1504 1502 1501 1500 1498 1496 1496 1496 1496 1496 1500 1492 1491 1492 1493 1495 1497 1499 1501 1503 1504 1505 1507 1511 1514 1535 1522 1518 1510 1510 1492 1491 1494 1491 1489 1489 1490 1490 1494 1499 1500 1503
1511 1508 1505 1502 1500 1499 1499 1497 1499 1497 1493 1490 1491 1489 1490 1490 1491 1491 1493 1496 1499 1501 1503 1502 1509 1516 1509 1508 1506 1508 1512 1513 1493 1486 1492 1496 1494 1487 1489 1490 1488 1490 1493 1495 1492
1508 1505 1503 1500 1498 1497 1497 1496 1496 1498 1491 1485 1485 1485 1487 1489 1491 1490 1492 1496 1498 1503 1501 1506 1512 1500 1501 1501 1504 1508 1514 1511 1493 1484 1487 1493 1492 1485 1484 1481 1479 1483 1486 1487 1491
1505 1503 1500 1498 1496 1496 1496 1497 1496 1494 1493 1480 1479 1479 1483 1487 1487 1486 1489 1491 1494 1500 1503 1511 1501 1496 1499 1499 1503 1508 1510 1505 1501 1491 1489 1490 1498 1490 1482 1479 1479 1482 1483 1484 1485
1502 1499 1497 1496 1497 1495 1496 1496 1495 1494 1504 1484 1476 1474 1478 1482 1483 1482 1485 1489 1493 1497 1501 1502 1495 1497 1498 1500 1498 1508 1494 1496 1497 1502 1517 1498 1532 1500 1485 1483 1479 1478 1478 1475 1477
1499 1497 1495 1494 1493 1494 1496 1495 1494 1495 1527 1475 1473 1472 1472 1478 1479 1479 1482 1486 1491 1491 1497 1501 1497 1497 1498 1495 1492 1501 1490 1494 1496 1508 1508 1507 1521 1503 1487 1484 1479 1473 1470 1466 1465
1497 1494 1493 1492 1491 1492 1493 1494 1495 1512 1520 1475 1470 1471 1474 1474 1475 1477 1480 1483 1485 1490 1492 1493 1490 1491 1490 1487 1487 1487 1492 1502 1511 1519 1537 1517 1522 1516 1496 1486 1477 1467 1465 1460 1460
1493 1491 1489 1489 1490 1490 1491 1493 1513 1523 1478 1478 1473 1471 1474 1477 1476 1476 1479 1485 1494 1506 1507 1495 1490 1485 1483 1489 1488 1493 1511 1541 1539 1547 1542 1523 1525 1507 1485 1482 1478 1469 1457 1454 1453
1488 1486 1485 1486 1487 1488 1490 1495 1515 1493 1486 1472 1471 1474 1478 1473 1476 1477 1482 1490 1485 1491 1509 1512 1515 1485 1480 1484 1492 1495 1506 1537 1547 1553 1538 1521 1523 1497 1477 1475 1474 1468 1460 1454 1450
1483 1482 1481 1482 1483 1487 1490 1512 1502 1492 1479 1478 1474 1477 1477 1473 1474 1479 1484 1489 1484 1486 1504 1513 1506 1480 1477 1478 1480 1497 1510 1500 1534 1544 1544 1524 1504 1481 1476 1474 1469 1466 1463 1458 1451
1480 1479 1479 1479 1482 1486 1492 1503 1491 1482 1478 1477 1483 1476 1485 1478 1482 1484 1484 1473 1476 1475 1477 1491 1509 1483 1478 1478 1480 1485 1492 1513 1529 1538 1545 1532 1522 1513 1487 1483 1477 1471 1467 1463 1460
1479 1477 1478 1478 1482 1486 1500 1498 1487 1480 1480 1479 1481 1480 1476 1476 1480 1486 1483 1472 1468 1472 1474 1485 1495 1486 1480 1486 1490 1495 1500 1513 1518 1531 1540 1544 1524 1494 1490 1488 1484 1480 1475 1472 1470
1478 1479 1479 1480 1484 1489 1494 1489 1483 1480 1479 1479 1477 1478 1477 1474 1479 1482 1481 1475 1466 1469 1480 1481 1497 1505 1494 1478 1477 1481 1489 1499 1523 1522 1536 1535 1522 1487 1487 1486 1484 1482 1481 1480 1474
1480 1479 1480 1480 1490 1492 1486 1484 1481 1480 1478 1477 1477 1473 1472 1474 1479 1474 1473 1467 1465 1466 1474 1478 1499 1514 1500 1490 1478 1480 1483 1494 1504 1513 1527 1526 1515 1486 1486 1485 1483 1481 1479 1480 1479
1482 1482 1481 1483 1483 1484 1485 1485 1482 1477 1476 1474 1473 1471 1472 1472 1472 1474 1472 1468 1466 1466 1466 1469 1495 1499 1512 1492 1482 1484 1482 1487 1495 1516 1515 1512 1497 1487 1486 1485 1484 1483 1481 1481 1480
1484 1485 1485 1485 1484 1483 1483 1484 1483 1481 1474 1472 1470 1472 1474 1479 1474 1475 1471 1469 1467 1466 1467 1471 1487 1488 1483 1483 1481 1480 1479 1483 1490 1489 1494 1489 1495 1488 1485 1485 1485 1484 1481 1480 1480
1486 1486 1484 1484 1483 1482 1483 1482 1480 1478 1476 1472 1471 1464 1470 1475 1470 1477 1472 1472 1469 1467 1469 1474 1488 1486 1485 1478 1481 1482 1476 1477 1480 1483 1485 1490 1490 1484 1485 1485 1483 1481 1480 1479 1479
1488 1487 1487 1485 1483 1483 1482 1478 1478 1478 1468 1465 1464 1466 1466 1463 1460 1458 1461 1460 1462 1467 1473 1478 1490 1498 1500 1487 1486 1491 1477 1478 1485 1485 1482 1489 1483 1482 1486 1484 1482 1480 1480 1479 1478